START_TIME,STEP,MOV.,AL01,t_acc.,AL02,t_acc.,E37,t_acc.,H21,t_acc.
1979-07-14 06:00:34.590 ,1,1,0.,24.0,0.,24.0,4.,24.0,0.,24.0
1979-07-14 06:00:58.590 ,2,1,0.,24.0,0.,24.0,2.,24.0,0.,24.0
1979-07-14 06:01:22.590 ,6,1,1.,24.0,0.,24.0,1.,24.0,0.,24.0
1979-07-14 06:01:46.590 ,5,1,14.,24.0,0.,24.0,0.,24.0,0.,24.0
1979-07-14 06:02:10.590 ,1,1,0.,24.0,1.,24.0,2.,24.0,0.,24.0
1979-07-14 06:02:34.590 ,2,1,0.,24.0,1.,24.0,1.,24.0,0.,24.0
1979-07-14 06:02:58.590 ,6,1,0.,24.0,1.,24.0,3.,24.0,0.,24.0
1979-07-14 06:03:22.590 ,5,1,10.,24.0,0.,24.0,7.,24.0,0.,24.0
1979-07-14 06:03:46.590 ,1,1,0.,24.0,0.,24.0,2.,24.0,0.,24.0
1979-07-14 06:04:10.590 ,2,1,0.,24.0,0.,24.0,3.,24.0,0.,24.0
1979-07-14 06:04:34.590 ,6,1,0.,24.0,1.,24.0,2.,24.0,0.,24.0
1979-07-14 06:04:58.590 ,5,1,15.,24.0,0.,24.0,2.,24.0,0.,24.0
1979-07-14 06:05:22.590 ,1,1,0.,24.0,0.,24.0,3.,24.0,0.,24.0
1979-07-14 06:05:46.590 ,0,0,0.,24.0,2.,24.0,3.,24.0,0.,24.0
1979-07-14 06:06:10.590 ,0,0,0.,24.0,0.,24.0,3.,24.0,0.,24.0
1979-07-14 06:06:34.590 ,5,1,17.,24.0,0.,24.0,2.,24.0,0.,24.0
1979-07-14 06:06:58.590 ,5,0,0.,24.0,0.,24.0,2.,24.0,0.,24.0
1979-07-14 06:07:22.590 ,4,1,0.,24.0,0.,24.0,1.,24.0,0.,24.0
1979-07-14 06:07:46.590 ,4,0,1.,24.0,0.,24.0,5.,24.0,0.,24.0
1979-07-14 06:08:10.590 ,3,1,0.,24.0,0.,24.0,4.,24.0,0.,24.0
1979-07-14 06:08:34.590 ,3,0,1.,24.0,2.,24.0,2.,24.0,0.,24.0
1979-07-14 06:08:58.590 ,2,1,1.,24.0,0.,24.0,2.,24.0,0.,24.0
1979-07-14 06:09:22.590 ,2,0,0.,24.0,1.,24.0,1.,24.0,0.,24.0
1979-07-14 06:09:46.590 ,1,1,0.,24.0,0.,24.0,1.,24.0,0.,24.0
1979-07-14 06:10:10.590 ,1,0,0.,24.0,1.,24.0,3.,24.0,0.,24.0
1979-07-14 06:10:34.590 ,0,1,0.,24.0,1.,24.0,2.,24.0,0.,24.0
1979-07-14 06:10:58.590 ,0,0,0.,24.0,0.,24.0,4.,24.0,0.,24.0
1979-07-14 06:11:22.590 ,0,1,0.,24.0,1.,24.0,4.,24.0,0.,24.0
1979-07-14 06:11:46.590 ,0,0,0.,24.0,1.,24.0,5.,24.0,0.,24.0
1979-07-14 06:12:10.590 ,1,1,0.,24.0,0.,24.0,4.,24.0,0.,24.0
1979-07-14 06:12:34.590 ,1,0,0.,24.0,0.,24.0,1.,24.0,0.,24.0
1979-07-14 06:12:58.590 ,2,1,2.,24.0,1.,24.0,3.,24.0,0.,24.0
1979-07-14 06:13:22.590 ,2,0,0.,24.0,0.,24.0,1.,24.0,0.,24.0
1979-07-14 06:13:46.590 ,3,1,0.,24.0,0.,24.0,4.,24.0,0.,24.0
1979-07-14 06:14:10.590 ,3,0,1.,24.0,1.,24.0,1.,24.0,0.,24.0
1979-07-14 06:14:34.590 ,4,1,0.,24.0,0.,24.0,2.,24.0,0.,24.0
1979-07-14 06:14:58.590 ,4,0,0.,24.0,0.,24.0,1.,24.0,0.,24.0
1979-07-14 06:15:22.590 ,5,1,1.,24.0,0.,24.0,0.,24.0,0.,24.0
1979-07-14 06:15:46.590 ,5,0,1.,24.0,2.,24.0,1.,24.0,0.,24.0
1979-07-14 06:16:10.590 ,6,1,0.,24.0,0.,24.0,1.,24.0,0.,24.0
1979-07-14 06:16:34.590 ,6,0,0.,24.0,0.,24.0,0.,24.0,0.,24.0
1979-07-14 06:16:58.590 ,7,1,10.,24.0,0.,24.0,1.,24.0,0.,24.0
1979-07-14 06:17:22.590 ,7,0,18.,24.0,0.,24.0,3.,24.0,0.,24.0
1979-07-14 06:17:46.590 ,7,1,35.,24.0,0.,24.0,2.,24.0,0.,24.0
1979-07-14 06:18:10.590 ,7,0,25.,24.0,0.,24.0,1.,24.0,0.,24.0
1979-07-14 06:18:34.590 ,6,1,22.,24.0,0.,24.0,3.,24.0,0.,24.0
1979-07-14 06:18:58.590 ,6,0,0.,24.0,0.,24.0,1.,24.0,0.,24.0
1979-07-14 06:19:22.590 ,5,1,1.,24.0,0.,24.0,1.,24.0,0.,24.0
1979-07-14 06:19:46.590 ,5,0,0.,24.0,0.,24.0,1.,24.0,0.,24.0
1979-07-14 06:20:10.590 ,4,1,0.,24.0,0.,24.0,2.,24.0,0.,24.0
1979-07-14 06:20:34.590 ,4,0,0.,24.0,0.,24.0,2.,24.0,0.,24.0
1979-07-14 06:20:58.590 ,3,1,1.,24.0,1.,24.0,4.,24.0,0.,24.0
1979-07-14 06:21:22.590 ,3,0,0.,24.0,0.,24.0,2.,24.0,0.,24.0
1979-07-14 06:21:46.590 ,2,1,0.,24.0,0.,24.0,0.,24.0,0.,24.0
1979-07-14 06:22:10.590 ,2,0,1.,24.0,0.,24.0,2.,24.0,0.,24.0
1979-07-14 06:22:34.590 ,1,1,0.,24.0,0.,24.0,0.,24.0,0.,24.0
1979-07-14 06:22:58.590 ,1,0,0.,24.0,0.,24.0,0.,24.0,0.,24.0
1979-07-14 06:23:22.590 ,0,1,0.,24.0,0.,24.0,0.,24.0,0.,24.0
1979-07-14 06:23:46.590 ,0,0,0.,24.0,0.,24.0,0.,24.0,0.,24.0
1979-07-14 06:24:10.590 ,0,1,1.,24.0,0.,24.0,0.,24.0,0.,24.0
1979-07-14 06:24:34.590 ,0,0,0.,24.0,0.,24.0,0.,24.0,0.,24.0
1979-07-14 06:24:58.590 ,1,1,0.,24.0,0.,24.0,1.,24.0,0.,24.0
1979-07-14 06:25:22.590 ,1,0,1.,24.0,0.,24.0,0.,24.0,0.,24.0
1979-07-14 06:25:46.590 ,2,1,1.,24.0,0.,24.0,0.,24.0,0.,24.0
1979-07-14 06:26:10.590 ,2,0,0.,24.0,0.,24.0,0.,24.0,0.,24.0
1979-07-14 06:26:34.590 ,3,1,0.,24.0,0.,24.0,0.,24.0,0.,24.0
1979-07-14 06:26:58.590 ,3,0,0.,24.0,0.,24.0,1.,24.0,0.,24.0
1979-07-14 06:27:22.590 ,4,1,0.,24.0,0.,24.0,0.,24.0,0.,24.0
1979-07-14 06:27:46.590 ,4,0,0.,24.0,0.,24.0,0.,24.0,0.,24.0
1979-07-14 06:28:10.590 ,5,1,0.,24.0,0.,24.0,0.,24.0,0.,24.0
1979-07-14 06:28:34.590 ,5,0,1.,24.0,1.,24.0,0.,24.0,0.,24.0
1979-07-14 06:28:58.590 ,6,1,0.,24.0,0.,24.0,1.,24.0,0.,24.0
1979-07-14 06:29:22.590 ,6,0,0.,24.0,0.,24.0,0.,24.0,0.,24.0
1979-07-14 06:29:46.590 ,7,1,6.,24.0,0.,24.0,0.,24.0,0.,24.0
1979-07-14 06:30:10.590 ,7,0,25.,24.0,0.,24.0,0.,24.0,0.,24.0
1979-07-14 06:30:34.590 ,7,1,31.,24.0,0.,24.0,0.,24.0,0.,24.0
1979-07-14 06:30:58.590 ,7,0,31.,24.0,0.,24.0,0.,24.0,0.,24.0
1979-07-14 06:31:22.590 ,6,1,19.,24.0,0.,24.0,0.,24.0,0.,24.0
1979-07-14 06:31:46.590 ,6,0,0.,24.0,1.,24.0,0.,24.0,0.,24.0
1979-07-14 06:32:10.590 ,5,1,2.,24.0,0.,24.0,0.,24.0,0.,24.0
1979-07-14 06:32:34.590 ,5,0,0.,24.0,0.,24.0,0.,24.0,0.,24.0
1979-07-14 06:32:58.590 ,4,1,1.,24.0,0.,24.0,0.,24.0,0.,24.0
1979-07-14 06:33:22.590 ,4,0,0.,24.0,0.,24.0,0.,24.0,0.,24.0
1979-07-14 06:33:46.590 ,3,1,0.,24.0,0.,24.0,0.,24.0,0.,24.0
1979-07-14 06:34:10.590 ,3,0,0.,24.0,0.,24.0,1.,24.0,0.,24.0
1979-07-14 06:34:34.590 ,2,1,0.,24.0,0.,24.0,0.,24.0,0.,24.0
1979-07-14 06:34:58.590 ,2,0,0.,24.0,0.,24.0,0.,24.0,0.,24.0
1979-07-14 06:35:22.590 ,1,1,0.,24.0,0.,24.0,1.,24.0,0.,24.0
1979-07-14 06:35:46.590 ,1,0,0.,24.0,0.,24.0,0.,24.0,0.,24.0
1979-07-14 06:36:10.590 ,0,1,0.,24.0,0.,24.0,0.,24.0,0.,24.0
1979-07-14 06:36:34.590 ,0,0,0.,24.0,1.,24.0,0.,24.0,0.,24.0
1979-07-14 06:36:58.590 ,0,1,0.,24.0,0.,24.0,0.,24.0,0.,24.0
1979-07-14 06:37:22.590 ,0,0,0.,24.0,0.,24.0,0.,24.0,0.,24.0
1979-07-14 06:37:46.590 ,1,1,0.,24.0,0.,24.0,0.,24.0,0.,24.0
1979-07-14 06:38:10.590 ,1,0,0.,24.0,1.,24.0,1.,24.0,0.,24.0
1979-07-14 06:38:34.590 ,2,1,0.,24.0,1.,24.0,0.,24.0,0.,24.0
1979-07-14 06:38:58.590 ,2,0,0.,24.0,1.,24.0,2.,24.0,0.,24.0
1979-07-14 06:39:22.590 ,3,1,0.,24.0,0.,24.0,1.,24.0,0.,24.0
1979-07-14 06:39:46.590 ,3,0,1.,24.0,0.,24.0,0.,24.0,0.,24.0
1979-07-14 06:40:10.590 ,4,1,0.,24.0,0.,24.0,1.,24.0,0.,24.0
1979-07-14 06:40:34.590 ,4,0,0.,24.0,0.,24.0,0.,24.0,0.,24.0
1979-07-14 06:40:58.590 ,5,1,0.,24.0,0.,24.0,0.,24.0,0.,24.0
1979-07-14 06:41:22.590 ,5,0,0.,24.0,1.,24.0,0.,24.0,0.,24.0
1979-07-14 06:41:46.590 ,6,1,0.,24.0,0.,24.0,1.,24.0,0.,24.0
1979-07-14 06:42:10.590 ,6,0,0.,24.0,0.,24.0,0.,24.0,0.,24.0
1979-07-14 06:42:34.590 ,7,0,5.,24.0,0.,24.0,2.,24.0,0.,24.0
1979-07-14 06:42:58.590 ,7,0,29.,24.0,0.,24.0,0.,24.0,0.,24.0
1979-07-14 06:43:22.590 ,5,1,11.,24.0,0.,24.0,1.,24.0,0.,24.0
1979-07-14 06:43:46.590 ,1,1,1.,24.0,1.,24.0,1.,24.0,0.,24.0
1979-07-14 06:44:10.590 ,2,1,0.,24.0,0.,24.0,3.,24.0,0.,24.0
1979-07-14 06:44:34.590 ,6,1,1.,24.0,0.,24.0,0.,24.0,0.,24.0
1979-07-14 06:44:58.590 ,5,1,20.,24.0,0.,24.0,0.,24.0,0.,24.0
1979-07-14 06:45:22.590 ,1,1,0.,24.0,1.,24.0,0.,24.0,0.,24.0
1979-07-14 06:45:46.590 ,2,1,0.,24.0,0.,24.0,0.,24.0,0.,24.0
1979-07-14 06:46:10.590 ,6,1,1.,24.0,0.,24.0,2.,24.0,0.,24.0
1979-07-14 06:46:34.590 ,5,1,22.,24.0,0.,24.0,0.,24.0,0.,24.0
1979-07-14 06:46:58.590 ,1,1,0.,24.0,0.,24.0,0.,24.0,0.,24.0
1979-07-14 06:47:22.590 ,2,1,0.,24.0,1.,24.0,0.,24.0,0.,24.0
1979-07-14 06:47:46.590 ,6,1,0.,24.0,0.,24.0,2.,24.0,0.,24.0
1979-07-14 06:48:10.590 ,5,1,9.,24.0,1.,24.0,1.,24.0,0.,24.0
1979-07-14 06:48:34.590 ,1,1,0.,24.0,1.,24.0,0.,24.0,0.,24.0
1979-07-14 06:48:58.590 ,2,1,0.,24.0,0.,24.0,5.,24.0,0.,24.0
1979-07-14 06:49:22.590 ,6,1,1.,24.0,1.,24.0,0.,24.0,0.,24.0
1979-07-14 06:49:46.590 ,5,1,15.,24.0,0.,24.0,2.,24.0,0.,24.0
1979-07-14 06:50:10.590 ,1,1,0.,24.0,0.,24.0,0.,24.0,0.,24.0
1979-07-14 06:50:34.590 ,2,1,1.,24.0,0.,24.0,2.,24.0,0.,24.0
1979-07-14 06:50:58.590 ,6,1,0.,24.0,1.,24.0,1.,24.0,0.,24.0
1979-07-14 06:51:22.590 ,5,1,14.,24.0,0.,24.0,0.,24.0,0.,24.0
1979-07-14 06:51:46.590 ,1,1,0.,24.0,0.,24.0,0.,24.0,0.,24.0
1979-07-14 06:52:10.590 ,2,1,0.,24.0,0.,24.0,3.,24.0,0.,24.0
1979-07-14 06:52:34.590 ,6,1,0.,24.0,0.,24.0,2.,24.0,0.,24.0
1979-07-14 06:52:58.590 ,5,1,13.,24.0,0.,24.0,2.,24.0,0.,24.0
1979-07-14 06:53:22.590 ,1,1,0.,24.0,0.,24.0,1.,24.0,0.,24.0
1979-07-14 06:53:46.590 ,0,0,0.,24.0,0.,24.0,2.,24.0,0.,24.0
1979-07-14 06:54:10.590 ,0,0,0.,24.0,1.,24.0,3.,24.0,0.,24.0
1979-07-14 06:54:34.590 ,5,1,12.,24.0,0.,24.0,0.,24.0,0.,24.0
1979-07-14 06:54:58.590 ,0,0,,0,,0,,0,,0
1979-07-14 06:55:17.790 ,7,0,,0,,0,,0,,0
1979-07-14 06:55:22.590 ,4,1,0.,24.0,1.,24.0,2.,24.0,0.,24.0
1979-07-14 06:55:46.590 ,4,0,0.,24.0,0.,24.0,0.,24.0,0.,24.0
1979-07-14 06:56:10.590 ,3,1,0.,24.0,0.,24.0,2.,24.0,0.,24.0
1979-07-14 06:56:34.590 ,3,0,0.,24.0,1.,24.0,1.,24.0,0.,24.0
1979-07-14 06:56:58.590 ,2,1,0.,24.0,0.,24.0,0.,24.0,0.,24.0
1979-07-14 06:57:22.590 ,2,0,0.,24.0,0.,24.0,2.,24.0,0.,24.0
1979-07-14 06:57:46.590 ,1,1,0.,24.0,0.,24.0,0.,24.0,0.,24.0
1979-07-14 06:58:10.590 ,1,0,0.,24.0,0.,24.0,1.,24.0,0.,24.0
1979-07-14 06:58:34.590 ,0,1,2.,24.0,0.,24.0,1.,24.0,0.,24.0
1979-07-14 06:58:58.590 ,0,0,0.,24.0,0.,24.0,0.,24.0,0.,24.0
1979-07-14 06:59:22.590 ,0,1,0.,24.0,0.,24.0,2.,24.0,0.,24.0
1979-07-14 06:59:46.590 ,0,0,0.,24.0,0.,24.0,0.,24.0,0.,24.0
1979-07-14 07:00:10.590 ,1,1,1.,24.0,0.,24.0,3.,24.0,0.,24.0
1979-07-14 07:00:34.590 ,1,0,0.,24.0,1.,24.0,2.,24.0,0.,24.0
1979-07-14 07:00:58.590 ,2,1,0.,24.0,0.,24.0,0.,24.0,0.,24.0
1979-07-14 07:01:22.590 ,2,0,0.,24.0,0.,24.0,1.,24.0,0.,24.0
1979-07-14 07:01:46.590 ,3,1,0.,24.0,0.,24.0,0.,24.0,0.,24.0
1979-07-14 07:02:10.590 ,3,0,0.,24.0,0.,24.0,2.,24.0,0.,24.0
1979-07-14 07:02:34.590 ,4,1,0.,24.0,0.,24.0,1.,24.0,0.,24.0
1979-07-14 07:02:58.590 ,4,0,0.,24.0,0.,24.0,0.,24.0,0.,24.0
1979-07-14 07:03:22.590 ,5,1,0.,24.0,0.,24.0,0.,24.0,0.,24.0
1979-07-14 07:03:46.590 ,5,0,0.,24.0,0.,24.0,1.,24.0,0.,24.0
1979-07-14 07:04:11.790 ,6,1,0.,24.0,0.,24.0,3.,24.0,0.,24.0
1979-07-14 07:04:34.590 ,6,0,0.,24.0,0.,24.0,3.,24.0,0.,24.0
1979-07-14 07:04:58.590 ,7,1,6.,24.0,0.,24.0,3.,24.0,0.,24.0
1979-07-14 07:05:22.590 ,7,0,40.,24.0,0.,24.0,0.,24.0,0.,24.0
1979-07-14 07:05:46.590 ,7,1,44.,24.0,0.,24.0,1.,24.0,0.,24.0
1979-07-14 07:06:10.590 ,7,0,22.,24.0,0.,24.0,0.,24.0,0.,24.0
1979-07-14 07:06:34.590 ,6,1,25.,24.0,0.,24.0,3.,24.0,0.,24.0
1979-07-14 07:06:58.590 ,6,0,0.,24.0,0.,24.0,4.,24.0,0.,24.0
1979-07-14 07:07:22.590 ,5,1,0.,24.0,1.,24.0,3.,24.0,0.,24.0
1979-07-14 07:07:46.590 ,5,0,1.,24.0,0.,24.0,0.,24.0,0.,24.0
1979-07-14 07:08:10.590 ,4,1,0.,24.0,0.,24.0,1.,24.0,0.,24.0
1979-07-14 07:08:34.590 ,4,0,1.,24.0,0.,24.0,1.,24.0,0.,24.0
1979-07-14 07:08:58.590 ,3,1,0.,24.0,0.,24.0,1.,24.0,0.,24.0
1979-07-14 07:09:22.590 ,3,0,0.,24.0,0.,24.0,1.,24.0,0.,24.0
1979-07-14 07:09:46.590 ,2,1,0.,24.0,0.,24.0,1.,24.0,0.,24.0
1979-07-14 07:10:10.590 ,2,0,0.,24.0,0.,24.0,2.,24.0,0.,24.0
1979-07-14 07:10:34.590 ,1,1,1.,24.0,1.,24.0,0.,24.0,0.,24.0
1979-07-14 07:10:58.590 ,1,0,0.,24.0,0.,24.0,2.,24.0,0.,24.0
1979-07-14 07:11:22.590 ,0,1,0.,24.0,0.,24.0,3.,24.0,0.,24.0
1979-07-14 07:11:46.590 ,0,0,0.,24.0,0.,24.0,0.,24.0,0.,24.0
1979-07-14 07:12:10.590 ,0,1,0.,24.0,0.,24.0,1.,24.0,0.,24.0
1979-07-14 07:12:34.590 ,0,0,0.,24.0,0.,24.0,2.,24.0,0.,24.0
1979-07-14 07:12:58.590 ,1,1,0.,24.0,0.,24.0,2.,24.0,0.,24.0
1979-07-14 07:13:22.590 ,1,0,1.,24.0,0.,24.0,4.,24.0,0.,24.0
1979-07-14 07:13:46.590 ,2,1,0.,24.0,0.,24.0,0.,24.0,0.,24.0
1979-07-14 07:14:10.590 ,2,0,0.,24.0,0.,24.0,3.,24.0,0.,24.0
1979-07-14 07:14:34.590 ,3,1,0.,24.0,0.,24.0,2.,24.0,0.,24.0
1979-07-14 07:14:58.590 ,3,0,0.,24.0,0.,24.0,0.,24.0,0.,24.0
1979-07-14 07:15:22.590 ,4,1,0.,24.0,0.,24.0,3.,24.0,0.,24.0
1979-07-14 07:15:46.590 ,4,0,1.,24.0,0.,24.0,1.,24.0,0.,24.0
1979-07-14 07:16:10.590 ,5,1,0.,24.0,0.,24.0,2.,24.0,0.,24.0
1979-07-14 07:16:34.590 ,5,0,1.,24.0,0.,24.0,2.,24.0,0.,24.0
1979-07-14 07:16:58.590 ,6,1,0.,24.0,0.,24.0,2.,24.0,0.,24.0
1979-07-14 07:17:22.590 ,6,0,0.,24.0,1.,24.0,5.,24.0,0.,24.0
1979-07-14 07:17:46.590 ,7,1,9.,24.0,0.,24.0,2.,24.0,0.,24.0
1979-07-14 07:18:10.590 ,7,0,28.,24.0,0.,24.0,1.,24.0,0.,24.0
1979-07-14 07:18:34.590 ,7,1,25.,24.0,0.,24.0,2.,24.0,0.,24.0
1979-07-14 07:18:58.590 ,7,0,29.,24.0,0.,24.0,0.,24.0,0.,24.0
1979-07-14 07:19:22.590 ,6,1,26.,24.0,0.,24.0,6.,24.0,0.,24.0
1979-07-14 07:19:46.590 ,6,0,1.,24.0,0.,24.0,1.,24.0,0.,24.0
1979-07-14 07:20:10.590 ,5,1,1.,24.0,1.,24.0,2.,24.0,0.,24.0
1979-07-14 07:20:34.590 ,5,0,0.,24.0,0.,24.0,2.,24.0,0.,24.0
1979-07-14 07:20:58.590 ,4,1,0.,24.0,0.,24.0,1.,24.0,0.,24.0
1979-07-14 07:21:22.590 ,4,0,1.,24.0,0.,24.0,2.,24.0,0.,24.0
1979-07-14 07:21:46.590 ,3,1,0.,24.0,1.,24.0,0.,24.0,0.,24.0
1979-07-14 07:22:10.590 ,3,0,0.,24.0,0.,24.0,0.,24.0,0.,24.0
1979-07-14 07:22:34.590 ,2,1,0.,24.0,0.,24.0,2.,24.0,0.,24.0
1979-07-14 07:22:58.590 ,2,0,0.,24.0,2.,24.0,0.,24.0,0.,24.0
1979-07-14 07:23:22.590 ,1,1,0.,24.0,0.,24.0,1.,24.0,0.,24.0
1979-07-14 07:23:46.590 ,1,0,1.,24.0,0.,24.0,1.,24.0,0.,24.0
1979-07-14 07:24:10.590 ,0,1,0.,24.0,0.,24.0,2.,24.0,0.,24.0
1979-07-14 07:24:34.590 ,0,0,1.,24.0,0.,24.0,3.,24.0,0.,24.0
1979-07-14 07:24:58.590 ,0,1,0.,24.0,0.,24.0,1.,24.0,0.,24.0
1979-07-14 07:25:22.590 ,0,0,1.,24.0,0.,24.0,1.,24.0,0.,24.0
1979-07-14 07:25:46.590 ,1,1,0.,24.0,0.,24.0,2.,24.0,0.,24.0
1979-07-14 07:26:10.590 ,1,0,0.,24.0,0.,24.0,1.,24.0,0.,24.0
1979-07-14 07:26:34.590 ,2,1,1.,24.0,0.,24.0,1.,24.0,0.,24.0
1979-07-14 07:26:58.590 ,2,0,1.,24.0,0.,24.0,1.,24.0,0.,24.0
1979-07-14 07:27:22.590 ,3,1,0.,24.0,0.,24.0,4.,24.0,0.,24.0
1979-07-14 07:27:46.590 ,3,0,0.,24.0,0.,24.0,1.,24.0,0.,24.0
1979-07-14 07:28:10.590 ,4,1,0.,24.0,0.,24.0,0.,24.0,0.,24.0
1979-07-14 07:28:34.590 ,4,0,0.,24.0,0.,24.0,1.,24.0,0.,24.0
1979-07-14 07:28:58.590 ,5,1,0.,24.0,0.,24.0,0.,24.0,0.,24.0
1979-07-14 07:29:22.590 ,5,0,0.,24.0,0.,24.0,1.,24.0,0.,24.0
1979-07-14 07:29:46.590 ,6,1,0.,24.0,1.,24.0,0.,24.0,0.,24.0
1979-07-14 07:30:10.590 ,6,0,0.,24.0,1.,24.0,2.,24.0,0.,24.0
1979-07-14 07:30:34.590 ,7,0,8.,24.0,0.,24.0,1.,24.0,0.,24.0
1979-07-14 07:30:58.590 ,7,0,28.,24.0,0.,24.0,1.,24.0,0.,24.0
1979-07-14 07:31:22.590 ,5,1,18.,24.0,0.,24.0,1.,24.0,0.,24.0
1979-07-14 07:31:46.590 ,1,1,0.,24.0,0.,24.0,0.,24.0,0.,24.0
1979-07-14 07:32:10.590 ,0,0,1.,24.0,0.,24.0,1.,24.0,0.,24.0
1979-07-14 07:32:34.590 ,0,0,1.,24.0,1.,24.0,0.,24.0,0.,24.0
1979-07-14 07:32:58.590 ,5,1,16.,24.0,0.,24.0,0.,24.0,0.,24.0
1979-07-14 07:33:22.590 ,1,1,0.,24.0,0.,24.0,1.,24.0,0.,24.0
1979-07-14 07:33:46.590 ,2,1,0.,24.0,0.,24.0,2.,24.0,0.,24.0
1979-07-14 07:34:10.590 ,6,1,0.,24.0,0.,24.0,0.,24.0,0.,24.0
1979-07-14 07:34:34.590 ,5,1,10.,24.0,0.,24.0,2.,24.0,0.,24.0
1979-07-14 07:34:58.590 ,1,1,0.,24.0,0.,24.0,1.,24.0,0.,24.0
1979-07-14 07:35:22.590 ,2,1,0.,24.0,0.,24.0,2.,24.0,0.,24.0
1979-07-14 07:35:46.590 ,6,1,0.,24.0,0.,24.0,1.,24.0,0.,24.0
1979-07-14 07:36:10.590 ,5,1,20.,24.0,0.,24.0,3.,24.0,0.,24.0
1979-07-14 07:36:34.590 ,1,1,0.,24.0,0.,24.0,0.,24.0,0.,24.0
1979-07-14 07:36:58.590 ,2,1,0.,24.0,0.,24.0,0.,24.0,0.,24.0
1979-07-14 07:37:22.590 ,6,1,0.,24.0,0.,24.0,0.,24.0,0.,24.0
1979-07-14 07:37:46.590 ,5,1,19.,24.0,0.,24.0,1.,24.0,0.,24.0
1979-07-14 07:38:10.590 ,1,1,0.,24.0,0.,24.0,2.,24.0,0.,24.0
1979-07-14 07:38:34.590 ,2,1,0.,24.0,0.,24.0,1.,24.0,0.,24.0
1979-07-14 07:38:58.590 ,6,1,0.,24.0,0.,24.0,3.,24.0,0.,24.0
1979-07-14 07:39:22.590 ,5,1,13.,24.0,0.,24.0,1.,24.0,0.,24.0
1979-07-14 07:39:46.590 ,1,1,0.,24.0,0.,24.0,2.,24.0,0.,24.0
1979-07-14 07:40:10.590 ,2,1,0.,24.0,0.,24.0,2.,24.0,0.,24.0
1979-07-14 07:40:34.590 ,6,1,1.,24.0,0.,24.0,2.,24.0,0.,24.0
1979-07-14 07:40:58.590 ,5,1,19.,24.0,0.,24.0,1.,24.0,0.,24.0
1979-07-14 07:41:22.590 ,1,1,0.,24.0,0.,24.0,1.,24.0,0.,24.0
1979-07-14 07:41:46.590 ,0,0,0.,24.0,0.,24.0,0.,24.0,0.,24.0
1979-07-14 07:42:10.590 ,0,0,0.,24.0,0.,24.0,3.,24.0,0.,24.0
1979-07-14 07:42:34.590 ,5,1,19.,24.0,0.,24.0,3.,24.0,0.,24.0
1979-07-14 07:42:58.590 ,5,0,0.,24.0,2.,24.0,1.,24.0,0.,24.0
1979-07-14 07:43:22.590 ,4,1,0.,24.0,0.,24.0,0.,24.0,0.,24.0
1979-07-14 07:43:46.590 ,4,0,0.,24.0,0.,24.0,1.,24.0,0.,24.0
1979-07-14 07:44:34.590 ,3,0,0.,24.0,0.,24.0,0.,24.0,0.,24.0
1979-07-14 07:44:58.590 ,2,1,0.,24.0,1.,24.0,0.,24.0,0.,24.0
1979-07-14 07:45:22.590 ,2,0,0.,24.0,0.,24.0,0.,24.0,0.,24.0
1979-07-14 07:45:46.590 ,1,1,1.,24.0,0.,24.0,3.,24.0,0.,24.0
1979-07-14 07:46:10.590 ,1,0,0.,24.0,0.,24.0,1.,24.0,0.,24.0
1979-07-14 07:46:34.590 ,0,1,1.,24.0,1.,24.0,1.,24.0,0.,24.0
1979-07-14 07:46:58.590 ,0,0,0.,24.0,0.,24.0,1.,24.0,0.,24.0
1979-07-14 07:47:22.590 ,0,1,0.,24.0,0.,24.0,0.,24.0,0.,24.0
1979-07-14 07:47:46.590 ,0,0,2.,24.0,1.,24.0,1.,24.0,0.,24.0
1979-07-14 07:48:10.590 ,1,1,1.,24.0,0.,24.0,1.,24.0,0.,24.0
1979-07-14 07:48:34.590 ,1,0,0.,24.0,0.,24.0,1.,24.0,0.,24.0
1979-07-14 07:48:58.590 ,2,1,0.,24.0,0.,24.0,0.,24.0,0.,24.0
1979-07-14 07:49:22.590 ,2,0,1.,24.0,0.,24.0,0.,24.0,0.,24.0
1979-07-14 07:49:46.590 ,3,1,0.,24.0,0.,24.0,1.,24.0,0.,24.0
1979-07-14 07:50:10.590 ,3,0,0.,24.0,0.,24.0,0.,24.0,0.,24.0
1979-07-14 07:50:34.590 ,4,1,1.,24.0,0.,24.0,0.,24.0,0.,24.0
1979-07-14 07:50:58.590 ,4,0,0.,24.0,1.,24.0,0.,24.0,0.,24.0
1979-07-14 07:51:22.590 ,5,1,0.,24.0,0.,24.0,1.,24.0,0.,24.0
1979-07-14 07:51:46.590 ,5,0,0.,24.0,2.,24.0,0.,24.0,0.,24.0
1979-07-14 07:52:10.590 ,6,1,0.,24.0,0.,24.0,0.,24.0,0.,24.0
1979-07-14 07:52:34.590 ,6,0,0.,24.0,0.,24.0,3.,24.0,0.,24.0
1979-07-14 07:52:58.590 ,7,1,10.,24.0,0.,24.0,1.,24.0,0.,24.0
1979-07-14 07:53:22.590 ,7,0,30.,24.0,1.,24.0,3.,24.0,0.,24.0
1979-07-14 07:53:46.590 ,7,1,21.,24.0,0.,24.0,1.,24.0,0.,24.0
1979-07-14 07:54:10.590 ,7,0,31.,24.0,0.,24.0,2.,24.0,0.,24.0
1979-07-14 07:54:34.590 ,6,1,28.,24.0,0.,24.0,1.,24.0,0.,24.0
1979-07-14 07:54:58.590 ,6,0,0.,24.0,0.,24.0,0.,24.0,0.,24.0
1979-07-14 07:55:22.590 ,5,1,1.,24.0,2.,24.0,1.,24.0,0.,24.0
1979-07-14 07:55:46.590 ,5,0,0.,24.0,1.,24.0,1.,24.0,0.,24.0
1979-07-14 07:56:10.590 ,4,1,1.,24.0,0.,24.0,4.,24.0,0.,24.0
1979-07-14 07:56:34.590 ,4,0,0.,24.0,1.,24.0,1.,24.0,0.,24.0
1979-07-14 07:56:58.590 ,3,1,0.,24.0,0.,24.0,0.,24.0,0.,24.0
1979-07-14 07:57:22.590 ,3,0,1.,24.0,0.,24.0,1.,24.0,0.,24.0
1979-07-14 07:57:46.590 ,2,1,0.,24.0,0.,24.0,0.,24.0,0.,24.0
1979-07-14 07:58:10.590 ,2,0,0.,24.0,0.,24.0,1.,24.0,0.,24.0
1979-07-14 07:58:34.580 ,1,1,1.,24.0,0.,24.0,1.,24.0,0.,24.0
1979-07-14 07:58:58.580 ,1,0,0.,24.0,0.,24.0,1.,24.0,0.,24.0
1979-07-14 07:59:22.580 ,0,1,1.,24.0,0.,24.0,2.,24.0,0.,24.0
1979-07-14 07:59:46.580 ,0,0,0.,24.0,1.,24.0,0.,24.0,0.,24.0
1979-07-14 08:00:10.580 ,0,1,0.,24.0,0.,24.0,1.,24.0,0.,24.0
1979-07-14 08:00:34.590 ,0,0,0.,24.0,0.,24.0,1.,24.0,0.,24.0
1979-07-14 08:00:58.590 ,1,1,0.,24.0,0.,24.0,2.,24.0,0.,24.0
1979-07-14 08:01:22.590 ,1,0,0.,24.0,0.,24.0,0.,24.0,0.,24.0
1979-07-14 08:01:46.590 ,2,1,0.,24.0,0.,24.0,0.,24.0,0.,24.0
1979-07-14 08:02:10.590 ,2,0,1.,24.0,0.,24.0,4.,24.0,0.,24.0
1979-07-14 08:02:34.590 ,3,1,1.,24.0,0.,24.0,1.,24.0,0.,24.0
1979-07-14 08:02:58.590 ,3,0,0.,24.0,1.,24.0,2.,24.0,0.,24.0
1979-07-14 08:03:22.590 ,4,1,0.,24.0,0.,24.0,0.,24.0,0.,24.0
1979-07-14 08:03:46.590 ,4,0,0.,24.0,1.,24.0,0.,24.0,0.,24.0
1979-07-14 08:04:10.590 ,5,1,2.,24.0,0.,24.0,0.,24.0,0.,24.0
1979-07-14 08:04:34.590 ,5,0,1.,24.0,0.,24.0,2.,24.0,0.,24.0
1979-07-14 08:04:58.590 ,6,1,1.,24.0,0.,24.0,1.,24.0,0.,24.0
1979-07-14 08:05:22.590 ,6,0,3.,24.0,0.,24.0,0.,24.0,0.,24.0
1979-07-14 08:05:46.590 ,7,1,12.,24.0,0.,24.0,1.,24.0,0.,24.0
1979-07-14 08:06:10.580 ,7,0,28.,24.0,0.,24.0,1.,24.0,0.,24.0
1979-07-14 08:06:34.590 ,7,1,26.,24.0,0.,24.0,1.,24.0,0.,24.0
1979-07-14 08:06:58.590 ,7,0,26.,24.0,0.,24.0,0.,24.0,0.,24.0
1979-07-14 08:07:22.590 ,6,1,27.,24.0,0.,24.0,1.,24.0,0.,24.0
1979-07-14 08:07:46.590 ,6,0,0.,24.0,0.,24.0,2.,24.0,0.,24.0
1979-07-14 08:08:10.580 ,5,1,0.,24.0,0.,24.0,1.,24.0,0.,24.0
1979-07-14 08:08:34.590 ,5,0,0.,24.0,0.,24.0,0.,24.0,0.,24.0
1979-07-14 08:08:58.580 ,4,1,0.,24.0,0.,24.0,2.,24.0,0.,24.0
1979-07-14 08:09:22.580 ,4,0,0.,24.0,0.,24.0,0.,24.0,0.,24.0
1979-07-14 08:09:46.580 ,3,1,0.,24.0,0.,24.0,0.,24.0,0.,24.0
1979-07-14 08:10:10.580 ,3,0,0.,24.0,1.,24.0,0.,24.0,0.,24.0
1979-07-14 08:10:34.580 ,2,1,0.,24.0,0.,24.0,0.,24.0,0.,24.0
1979-07-14 08:10:58.580 ,2,0,0.,24.0,0.,24.0,1.,24.0,0.,24.0
1979-07-14 08:11:22.580 ,1,1,0.,24.0,0.,24.0,1.,24.0,0.,24.0
1979-07-14 08:11:46.580 ,1,0,0.,24.0,0.,24.0,0.,24.0,0.,24.0
1979-07-14 08:12:10.580 ,0,1,1.,24.0,1.,24.0,0.,24.0,0.,24.0
1979-07-14 08:12:34.580 ,0,0,0.,24.0,1.,24.0,2.,24.0,0.,24.0
1979-07-14 08:12:58.580 ,0,0,0.,24.0,0.,24.0,1.,24.0,0.,24.0
1979-07-14 08:13:22.580 ,0,0,2.,24.0,0.,24.0,1.,24.0,0.,24.0
1979-07-14 08:13:46.580 ,1,1,0.,24.0,0.,24.0,1.,24.0,0.,24.0
1979-07-14 08:14:10.580 ,1,0,0.,24.0,0.,24.0,0.,24.0,0.,24.0
1979-07-14 08:14:34.580 ,2,1,1.,24.0,0.,24.0,1.,24.0,0.,24.0
1979-07-14 08:14:58.580 ,2,0,0.,24.0,0.,24.0,1.,24.0,0.,24.0
1979-07-14 08:15:22.580 ,3,1,0.,24.0,0.,24.0,1.,24.0,0.,24.0
1979-07-14 08:15:46.580 ,3,0,2.,24.0,0.,24.0,0.,24.0,0.,24.0
1979-07-14 08:16:10.580 ,4,1,1.,24.0,0.,24.0,0.,24.0,0.,24.0
1979-07-14 08:16:34.580 ,4,0,1.,24.0,0.,24.0,0.,24.0,0.,24.0
1979-07-14 08:16:58.580 ,5,1,0.,24.0,1.,24.0,0.,24.0,0.,24.0
1979-07-14 08:17:22.590 ,5,0,0.,24.0,0.,24.0,1.,24.0,0.,24.0
1979-07-14 08:17:46.590 ,6,1,0.,24.0,0.,24.0,0.,24.0,0.,24.0
1979-07-14 08:18:10.590 ,6,0,0.,24.0,2.,24.0,4.,24.0,0.,24.0
1979-07-14 08:18:34.590 ,7,0,3.,24.0,0.,24.0,3.,24.0,0.,24.0
1979-07-14 08:18:58.590 ,7,0,25.,24.0,0.,24.0,0.,24.0,0.,24.0
1979-07-14 08:19:22.590 ,5,1,14.,24.0,0.,24.0,1.,24.0,0.,24.0
1979-07-14 08:19:46.590 ,1,1,0.,24.0,0.,24.0,2.,24.0,0.,24.0
1979-07-14 08:20:10.590 ,2,1,0.,24.0,0.,24.0,1.,24.0,0.,24.0
1979-07-14 08:20:34.590 ,6,1,1.,24.0,0.,24.0,0.,24.0,0.,24.0
1979-07-14 08:20:58.590 ,5,1,21.,24.0,0.,24.0,0.,24.0,0.,24.0
1979-07-14 08:21:22.590 ,1,1,1.,24.0,2.,24.0,1.,24.0,0.,24.0
1979-07-14 08:21:46.590 ,2,1,1.,24.0,0.,24.0,0.,24.0,0.,24.0
1979-07-14 08:22:10.590 ,6,1,0.,24.0,1.,24.0,2.,24.0,0.,24.0
1979-07-14 08:22:34.590 ,5,1,18.,24.0,0.,24.0,1.,24.0,0.,24.0
1979-07-14 08:22:58.590 ,1,1,1.,24.0,0.,24.0,0.,24.0,0.,24.0
1979-07-14 08:23:22.590 ,2,1,1.,24.0,0.,24.0,3.,24.0,0.,24.0
1979-07-14 08:23:46.590 ,6,1,1.,24.0,0.,24.0,2.,24.0,0.,24.0
1979-07-14 08:24:10.590 ,5,1,14.,24.0,0.,24.0,0.,24.0,0.,24.0
1979-07-14 08:24:34.590 ,1,1,1.,24.0,0.,24.0,2.,24.0,0.,24.0
1979-07-14 08:24:58.590 ,2,1,0.,24.0,0.,24.0,0.,24.0,0.,24.0
1979-07-14 08:25:22.590 ,6,1,0.,24.0,2.,24.0,0.,24.0,0.,24.0
1979-07-14 08:25:46.580 ,5,1,19.,24.0,0.,24.0,3.,24.0,0.,24.0
1979-07-14 08:26:10.580 ,1,1,1.,24.0,0.,24.0,2.,24.0,0.,24.0
1979-07-14 08:26:34.580 ,2,1,2.,24.0,0.,24.0,3.,24.0,0.,24.0
1979-07-14 08:26:58.580 ,6,1,0.,24.0,0.,24.0,1.,24.0,0.,24.0
1979-07-14 08:27:22.580 ,5,1,15.,24.0,0.,24.0,0.,24.0,0.,24.0
1979-07-14 08:27:46.580 ,1,1,0.,24.0,0.,24.0,2.,24.0,0.,24.0
1979-07-14 08:28:10.580 ,2,1,0.,24.0,0.,24.0,1.,24.0,0.,24.0
1979-07-14 08:28:34.580 ,6,1,0.,24.0,1.,24.0,2.,24.0,0.,24.0
1979-07-14 08:28:58.580 ,5,1,20.,24.0,0.,24.0,0.,24.0,0.,24.0
1979-07-14 08:29:22.580 ,1,1,1.,24.0,1.,24.0,1.,24.0,0.,24.0
1979-07-14 08:29:46.580 ,0,0,0.,24.0,0.,24.0,1.,24.0,0.,24.0
1979-07-14 08:30:10.580 ,0,0,0.,24.0,0.,24.0,7.,24.0,0.,24.0
1979-07-14 08:30:34.580 ,5,1,17.,24.0,0.,24.0,2.,24.0,0.,24.0
1979-07-14 08:30:58.580 ,5,0,0.,24.0,0.,24.0,1.,24.0,0.,24.0
1979-07-14 08:31:22.580 ,4,1,0.,24.0,0.,24.0,2.,24.0,0.,24.0
1979-07-14 08:31:46.580 ,4,0,1.,24.0,0.,24.0,5.,24.0,0.,24.0
1979-07-14 08:32:10.580 ,3,1,0.,24.0,0.,24.0,1.,24.0,0.,24.0
1979-07-14 08:32:34.580 ,3,0,0.,24.0,0.,24.0,2.,24.0,0.,24.0
1979-07-14 08:32:58.580 ,2,1,1.,24.0,0.,24.0,1.,24.0,0.,24.0
1979-07-14 08:33:22.580 ,2,0,0.,24.0,0.,24.0,2.,24.0,0.,24.0
1979-07-14 08:33:46.580 ,1,1,0.,24.0,0.,24.0,0.,24.0,0.,24.0
1979-07-14 08:34:10.580 ,1,0,0.,24.0,0.,24.0,1.,24.0,0.,24.0